Wind_Speed
26 26 25 23 21 20 18 17 14 12 11 11 8 8 9 9 11 11 12 11 10 9 10 9 9 9 8 8 8 8 9 10 11 11 11 9 10 10 10 11 11 13 15
27 26 25 25 23 23 24 21 20 18 16 13 12 9 9 9 8 9 11 12 13 12 11 10 10 9 9 10 9 9 10 11 13 13 13 13 14 13 12 13 12 14 16
31 29 28 27 27 26 25 26 25 22 20 18 17 13 12 12 10 9 9 9 10 12 11 11 11 11 11 12 12 12 13 14 16 15 15 16 17 16 16 17 16 16 16
26 34 32 30 30 31 30 28 28 27 24 22 20 19 18 16 14 13 12 12 11 11 12 13 12 13 14 15 16 15 15 16 17 18 18 18 18 17 18 18 16 17 19
33 35 25 35 34 37 32 30 30 28 27 25 23 22 21 21 20 18 16 15 16 15 14 14 13 14 15 15 17 17 18 19 19 20 20 21 20 20 19 19 20 21 23
30 16 34 37 33 29 29 33 31 29 29 27 26 26 24 23 23 23 22 20 18 18 18 18 17 17 16 17 18 18 19 21 21 22 22 21 20 20 20 21 21 23 25
23 23 18 18 12 26 31 33 33 32 32 31 30 28 27 26 25 25 24 24 23 22 21 20 19 19 19 20 20 20 20 21 22 21 21 20 20 20 21 21 21 22 25
24 23 21 22 18 14 13 11 14 31 32 32 30 29 29 30 29 28 27 27 26 26 26 25 24 24 24 23 23 22 22 23 23 23 23 23 20 21 19 20 22 22 24
28 27 27 25 22 20 18 17 16 18 26 30 26 29 28 31 31 32 31 31 30 29 28 29 29 29 30 31 28 27 26 25 27 26 25 24 24 24 24 23 26 25 26
35 33 31 30 29 26 25 24 24 23 25 23 21 24 25 26 27 30 31 32 31 32 33 33 32 32 34 34 33 31 29 31 34 31 28 28 28 27 29 29 29 28 27
37 39 38 36 34 32 31 29 29 31 31 29 30 28 28 29 29 29 29 29 28 29 31 34 37 37 36 37 37 36 35 35 36 36 35 34 33 32 33 35 33 31 27
39 43 44 41 40 39 37 34 34 33 35 36 36 36 36 36 37 36 37 36 34 31 30 33 35 38 38 40 39 40 40 40 39 40 39 38 37 36 37 37 37 37 36
48 47 46 46 47 44 43 42 41 39 38 38 39 41 42 41 42 42 42 44 41 42 41 39 39 39 38 39 39 36 37 39 42 42 41 40 40 39 39 39 41 42 43
51 50 49 48 48 48 47 46 46 46 45 44 44 43 44 45 45 45 46 47 47 45 44 42 43 44 44 44 41 42 40 49 44 40 39 41 41 41 41 43 43 44 45
51 49 49 49 49 49 49 49 48 48 47 48 49 49 49 50 51 50 49 48 48 49 48 47 48 46 45 46 50 47 43 42 42 40 39 40 40 41 41 44 46 47 47
49 48 48 48 48 49 48 47 48 48 49 51 52 53 53 53 54 55 54 53 52 51 51 51 51 50 49 49 48 46 44 41 45 46 45 45 45 45 45 42 43 46 49
47 46 46 46 47 47 47 48 49 49 48 49 51 53 55 56 57 57 57 58 59 58 55 55 55 56 55 52 51 50 50 49 49 49 48 49 48 48 46 44 46 46 46
47 46 46 47 48 49 49 50 52 52 53 54 54 54 56 58 58 60 61 62 62 62 61 62 62 61 61 59 58 57 55 53 54 53 52 51 50 50 51 48 47 49 47
46 46 48 48 48 48 49 50 51 52 53 52 52 54 57 60 60 62 64 66 67 67 67 66 66 65 65 65 65 64 61 59 59 58 57 57 57 57 55 53 52 50 50
47 47 47 47 48 50 51 51 53 55 55 55 55 56 55 58 59 61 64 66 68 70 72 73 72 70 71 70 70 68 66 65 64 64 63 61 61 61 59 57 56 54 53
49 50 50 51 52 53 54 56 57 60 63 63 63 63 64 65 65 66 67 69 72 74 75 75 75 75 75 75 76 76 73 71 70 68 68 68 65 64 63 62 58 56 55
52 55 57 58 59 59 60 63 66 66 67 69 69 71 72 71 72 74 74 75 76 77 78 80 79 79 79 78 80 82 82 78 76 76 73 72 71 69 66 66 65 61 59
55 57 59 61 63 64 67 70 71 72 73 75 75 75 77 80 82 83 84 84 84 84 84 84 86 85 84 82 82 84 86 85 83 81 79 77 75 74 72 69 67 65 62
51 52 53 55 58 61 63 65 69 72 76 80 80 82 84 85 87 90 93 94 95 95 94 93 92 91 90 89 87 87 87 86 87 84 82 79 77 77 75 73 70 68 65
44 45 46 47 49 51 53 57 63 67 72 79 83 87 92 94 95 95 96 98 100 100 100 98 96 95 95 93 91 89 89 87 84 84 83 80 78 76 76 74 71 68 67
41 43 45 45 46 50 55 61 65 69 73 76 77 71 69 69 69 69 71 74 78 82 83 84 83 83 85 87 87 88 88 88 86 83 82 81 79 76 74 73 71 68 63
Wind_Direction
220 210 199 197 202 197 196 196 203 200 193 201 189 164 157 168 165 167 173 171 169 176 172 174 187 185 186 194 189 193 201 208 211 222 243 249 256 276 296 304 311 305 303
223 220 216 215 209 199 193 198 203 204 201 203 203 192 173 179 181 183 186 188 190 194 201 199 198 198 201 213 213 214 218 230 240 248 257 273 285 288 293 288 293 296 301
218 217 213 215 214 216 204 197 204 209 205 202 204 200 191 187 184 195 206 206 205 204 208 216 224 220 223 230 234 233 229 231 243 252 260 272 278 288 289 293 299 300 298
217 222 208 209 214 215 214 208 205 207 210 207 209 209 204 201 199 202 205 213 223 228 223 220 227 233 233 242 247 246 248 254 257 261 264 269 275 283 289 295 297 294 297
225 236 229 212 218 220 214 214 209 212 215 215 212 218 217 215 209 209 212 214 218 224 228 236 235 233 236 241 248 249 252 256 259 264 269 274 280 283 288 290 291 293 293
228 222 247 229 224 224 216 214 208 210 218 221 221 221 224 226 227 223 219 220 225 229 227 229 235 242 245 244 247 248 250 255 258 262 266 270 276 280 284 285 288 288 288
269 274 231 238 247 225 232 230 220 211 214 218 220 224 226 230 231 234 234 229 229 233 239 242 239 241 247 251 255 259 262 263 266 267 270 271 276 279 282 284 284 284 287
259 264 266 273 280 281 265 228 213 220 220 225 223 225 228 231 234 234 236 236 236 240 240 242 245 249 251 250 252 255 259 262 266 270 270 275 277 281 281 284 284 284 284
260 260 261 260 263 260 257 258 252 231 227 222 221 222 226 232 238 241 239 240 242 242 244 249 251 251 253 255 258 260 262 266 266 267 272 278 283 287 289 289 285 286 285
265 265 262 264 262 255 247 245 247 247 246 242 237 239 230 234 241 247 251 251 252 254 254 250 250 253 257 259 259 259 264 270 270 271 271 274 278 282 284 284 283 286 289
267 269 269 268 265 262 260 253 245 246 248 245 243 239 238 234 238 242 246 253 251 245 250 256 257 255 256 258 261 262 259 258 263 267 270 270 271 272 275 278 280 282 282
261 264 267 267 267 267 263 260 256 248 245 249 249 246 242 243 245 249 250 251 254 257 255 253 257 257 256 256 256 259 262 263 262 264 266 267 268 268 270 273 278 278 278
265 263 263 264 264 263 262 261 260 257 253 249 248 250 250 247 248 251 254 257 258 257 255 253 257 260 260 261 262 261 267 266 262 261 264 266 267 268 269 269 270 273 277
264 264 262 260 260 262 262 262 260 259 257 256 254 250 250 253 254 252 252 253 255 257 255 256 259 260 260 261 264 271 267 273 268 267 263 263 266 266 266 269 270 272 273
263 262 261 260 260 258 258 258 257 257 257 257 255 253 253 253 252 252 252 253 253 255 257 257 259 257 260 263 263 266 269 267 260 264 267 269 271 273 275 277 275 271 271
259 259 259 259 259 259 258 257 257 256 256 255 256 257 258 255 256 255 253 253 254 255 257 259 259 260 259 259 262 264 264 262 262 262 266 268 268 270 271 275 279 277 274
257 256 256 256 255 255 255 256 257 255 255 256 255 255 255 256 257 257 258 258 259 257 256 256 257 260 261 259 260 260 260 261 260 262 263 267 271 273 275 275 278 282 279
253 254 254 254 254 255 255 256 256 256 258 258 256 256 258 258 258 259 259 259 260 259 259 259 259 258 260 260 260 259 259 259 261 262 264 265 267 270 273 276 280 284 291
254 254 255 255 255 256 257 258 258 259 258 257 258 261 260 258 258 258 259 260 260 260 260 260 261 260 260 262 262 262 261 261 261 262 263 265 267 268 270 273 276 280 283
252 252 253 254 256 257 259 259 259 261 261 262 261 259 257 262 261 260 260 258 258 260 261 262 261 261 261 260 261 260 262 263 263 262 263 263 265 268 270 272 274 277 279
252 252 254 256 259 262 264 265 265 265 263 261 262 261 262 263 264 264 265 265 264 262 261 260 260 261 260 261 262 262 261 260 261 261 262 263 262 263 266 269 270 273 276
263 262 263 266 268 271 273 274 276 273 269 267 267 265 266 267 267 266 266 266 265 265 265 264 262 261 260 260 261 262 263 262 261 262 262 262 263 264 264 265 268 270 272
267 268 270 272 274 275 276 277 275 275 274 273 272 271 270 271 273 273 271 270 269 267 265 265 264 262 261 260 259 260 261 262 262 262 263 263 263 264 265 265 266 268 270
266 268 270 272 273 274 275 276 277 277 278 277 277 277 277 275 274 273 273 271 270 269 268 266 265 263 261 260 258 257 258 258 259 261 261 261 263 264 264 265 265 267 269
268 270 272 273 275 278 281 284 284 284 284 283 283 281 279 277 277 275 272 271 270 269 268 267 265 263 261 258 256 254 255 255 255 255 257 258 258 259 261 262 263 263 266
267 271 274 278 284 286 288 290 290 293 293 288 284 280 276 274 272 270 267 264 263 262 261 260 258 256 254 252 251 250 249 250 250 251 252 253 254 256 257 258 260 261 261
Height
5927 5929 5931 5935 5938 5942 5945 5945 5946 5949 5952 5955 5955 5955 5955 5957 5958 5959 5961 5962 5963 5965 5966 5968 5970 5971 5972 5972 5973 5974 5976 5975 5975 5975 5975 5974 5974 5973 5973 5972 5971 5969 5967
5923 5926 5929 5933 5934 5938 5941 5943 5945 5947 5949 5951 5953 5952 5954 5955 5957 5959 5960 5961 5961 5963 5966 5966 5967 5968 5969 5970 5971 5972 5974 5973 5974 5974 5973 5972 5972 5971 5970 5969 5968 5966 5964
5915 5918 5920 5925 5932 5933 5936 5938 5940 5943 5945 5946 5949 5951 5952 5953 5953 5956 5958 5959 5960 5961 5963 5964 5965 5966 5967 5967 5968 5968 5970 5970 5970 5970 5970 5970 5969 5968 5967 5966 5966 5963 5962
5908 5901 5911 5916 5920 5925 5929 5934 5936 5937 5941 5943 5944 5946 5947 5949 5950 5952 5954 5957 5958 5959 5959 5961 5962 5964 5965 5964 5965 5965 5966 5966 5966 5966 5967 5966 5966 5965 5964 5963 5962 5960 5959
5902 5902 5902 5909 5913 5915 5920 5925 5929 5933 5935 5937 5939 5942 5943 5944 5945 5947 5949 5952 5954 5956 5956 5958 5958 5959 5960 5960 5960 5961 5962 5962 5963 5962 5963 5962 5962 5961 5961 5960 5958 5957 5955
5897 5896 5900 5900 5908 5908 5908 5914 5921 5926 5928 5931 5934 5936 5938 5939 5941 5944 5945 5947 5950 5953 5954 5954 5955 5955 5956 5957 5957 5957 5958 5958 5959 5958 5959 5960 5958 5958 5957 5956 5955 5953 5950
5893 5894 5898 5899 5902 5904 5905 5909 5913 5916 5921 5924 5925 5928 5931 5934 5936 5939 5941 5942 5945 5948 5949 5950 5950 5950 5952 5953 5953 5954 5954 5955 5954 5955 5954 5955 5955 5955 5953 5952 5951 5949 5946
5891 5893 5894 5897 5899 5901 5903 5905 5907 5909 5914 5918 5921 5922 5924 5928 5930 5933 5936 5937 5938 5941 5943 5945 5946 5946 5946 5947 5948 5949 5950 5950 5950 5950 5950 5949 5950 5949 5949 5948 5946 5945 5942
5885 5888 5891 5893 5895 5898 5900 5902 5903 5905 5908 5910 5913 5913 5915 5920 5923 5925 5927 5932 5933 5935 5937 5938 5939 5940 5939 5940 5943 5944 5945 5945 5944 5944 5945 5944 5944 5944 5943 5943 5941 5941 5939
5875 5879 5883 5885 5888 5893 5896 5897 5898 5900 5902 5904 5905 5908 5909 5912 5915 5918 5921 5924 5927 5927 5928 5929 5931 5932 5932 5933 5935 5937 5939 5938 5936 5938 5939 5939 5938 5937 5935 5934 5933 5933 5933
5865 5868 5872 5875 5878 5882 5885 5889 5892 5893 5894 5896 5899 5902 5906 5907 5908 5910 5912 5914 5915 5917 5920 5921 5921 5922 5924 5924 5924 5925 5927 5927 5927 5928 5928 5929 5929 5928 5927 5924 5924 5925 5925
5858 5860 5862 5866 5868 5871 5875 5878 5882 5885 5887 5888 5890 5893 5895 5898 5899 5900 5902 5904 5906 5908 5910 5910 5911 5912 5913 5913 5914 5915 5916 5916 5917 5917 5919 5920 5920 5919 5917 5916 5914 5913 5913
5845 5849 5853 5854 5856 5860 5863 5866 5869 5872 5875 5879 5881 5882 5884 5886 5888 5889 5890 5893 5894 5899 5900 5901 5901 5902 5905 5904 5904 5904 5905 5906 5907 5908 5909 5910 5909 5908 5908 5908 5906 5905 5904
5830 5834 5838 5842 5845 5847 5850 5853 5856 5859 5863 5865 5867 5870 5872 5874 5876 5878 5879 5880 5882 5885 5888 5888 5891 5893 5893 5895 5894 5892 5894 5895 5895 5897 5898 5898 5897 5897 5898 5896 5896 5896 5895
5817 5819 5823 5826 5830 5834 5836 5838 5841 5844 5848 5849 5852 5855 5857 5859 5860 5863 5866 5868 5870 5872 5873 5876 5877 5880 5880 5880 5881 5882 5883 5883 5885 5885 5885 5886 5886 5885 5885 5884 5884 5884 5883
5802 5805 5808 5810 5814 5817 5821 5825 5827 5829 5832 5834 5836 5838 5841 5844 5845 5848 5851 5853 5856 5858 5860 5861 5863 5864 5867 5868 5868 5869 5871 5872 5872 5874 5875 5874 5874 5873 5874 5873 5871 5870 5869
5786 5789 5793 5796 5798 5802 5804 5806 5809 5812 5815 5817 5820 5823 5824 5826 5828 5831 5833 5836 5838 5841 5844 5845 5846 5847 5850 5853 5855 5856 5858 5858 5859 5860 5861 5861 5860 5860 5861 5861 5859 5857 5855
5772 5774 5777 5779 5782 5785 5788 5790 5793 5796 5796 5799 5801 5803 5804 5807 5811 5812 5814 5817 5820 5822 5825 5827 5830 5833 5833 5835 5837 5840 5842 5843 5844 5845 5846 5846 5846 5846 5847 5848 5846 5843 5841
5757 5760 5762 5764 5766 5768 5770 5772 5774 5776 5779 5781 5782 5782 5784 5786 5789 5792 5794 5796 5798 5801 5803 5806 5811 5814 5816 5818 5820 5823 5825 5828 5829 5829 5830 5831 5831 5830 5833 5834 5833 5832 5830
5743 5745 5747 5749 5750 5751 5753 5755 5756 5758 5759 5761 5763 5764 5765 5763 5767 5770 5771 5773 5775 5778 5781 5784 5789 5792 5794 5796 5798 5801 5805 5808 5810 5812 5813 5815 5815 5814 5816 5817 5818 5818 5818
5729 5730 5732 5733 5734 5735 5735 5736 5737 5738 5738 5739 5740 5742 5742 5743 5745 5746 5747 5749 5750 5752 5755 5760 5765 5767 5769 5772 5775 5778 5782 5785 5787 5790 5792 5794 5797 5799 5799 5800 5802 5803 5804
5713 5714 5714 5715 5715 5716 5716 5715 5715 5716 5716 5717 5718 5717 5716 5717 5719 5720 5722 5723 5724 5726 5728 5731 5737 5741 5744 5747 5750 5752 5756 5761 5765 5767 5771 5773 5775 5778 5782 5783 5784 5787 5788
5698 5698 5698 5697 5696 5695 5694 5693 5692 5691 5690 5690 5691 5692 5692 5691 5690 5689 5691 5693 5694 5697 5700 5702 5707 5712 5716 5721 5723 5725 5730 5735 5738 5743 5748 5750 5754 5756 5759 5763 5766 5769 5772
5682 5683 5682 5681 5680 5678 5676 5673 5670 5667 5665 5662 5663 5662 5661 5660 5660 5660 5657 5657 5659 5661 5665 5671 5675 5679 5684 5689 5694 5697 5701 5707 5712 5716 5720 5727 5732 5734 5737 5741 5746 5749 5751
5667 5667 5666 5665 5664 5663 5660 5655 5651 5646 5641 5639 5639 5634 5628 5624 5624 5625 5624 5621 5621 5625 5629 5634 5637 5641 5646 5654 5662 5668 5672 5677 5683 5689 5694 5699 5706 5711 5714 5717 5723 5728 5731
5652 5652 5651 5650 5648 5646 5642 5638 5631 5624 5619 5618 5611 5602 5598 5595 5592 5590 5589 5588 5588 5589 5591 5595 5600 5605 5611 5618 5627 5635 5642 5648 5653 5661 5667 5675 5681 5686 5690 5695 5698 5704 5711